• In Deutschland
  • Länderverzeichnis
  • Für 7 Tage
  • Wassertemperatur
  • Satellitenkarten
  • Wetterkarte
  • Widgets
  • user-avatar
    Anmelden

    Stündliche Wetter Walsrode

    Heute, 20 Februar, Dienstag

    Zeit Temperatur Niederschläge Wind Luftdruck Luftfeuchtigkeit
    00:00 0°C° 0 mm 1 m/S 759 mmHg 81%
    01:00 0°C° 0 mm 1 m/S 759 mmHg 83%
    02:00 0°C° 0 mm 1 m/S 759 mmHg 84%
    03:00 0°C° 0 mm 1 m/S 759 mmHg 84%
    04:00 0°C° 0 mm 1 m/S 759 mmHg 85%
    05:00 0°C° 0 mm 1 m/S 759 mmHg 86%
    06:00 -1°C° 0 mm 1 m/S 759 mmHg 87%
    07:00 -1°C° 0 mm 1 m/S 759 mmHg 89%
    08:00 -2°C° 0 mm 2 m/S 759 mmHg 83%
    09:00 -1°C° 0 mm 2 m/S 759 mmHg 77%
    10:00 +2°C° 0 mm 2 m/S 759 mmHg 70%
    11:00 +3°C° 0 mm 2 m/S 759 mmHg 65%
    12:00 +2°C° 0 mm 3 m/S 759 mmHg 60%
    13:00 +3°C° 0 mm 3 m/S 760 mmHg 56%
    14:00 +3°C° 0 mm 3 m/S 760 mmHg 57%
    15:00 +3°C° 0 mm 3 m/S 760 mmHg 57%
    16:00 +3°C° 0 mm 3 m/S 760 mmHg 58%
    17:00 +1°C° 0 mm 3 m/S 760 mmHg 65%
    18:00 0°C° 0 mm 3 m/S 761 mmHg 72%
    19:00 -2°C° 0 mm 2 m/S 761 mmHg 79%
    20:00 -2°C° 0 mm 2 m/S 761 mmHg 80%
    21:00 -2°C° 0 mm 2 m/S 762 mmHg 82%
    22:00 -3°C° 0 mm 2 m/S 762 mmHg 84%
    23:00 -3°C° 0 mm 2 m/S 763 mmHg 84%

    Morgen, 21 Februar, Mittwoch

    Zeit Temperatur Niederschläge Wind Luftdruck Luftfeuchtigkeit
    00:00 -3°C° 0 mm 2 m/S 763 mmHg 84%
    01:00 -3°C° 0 mm 2 m/S 763 mmHg 85%
    02:00 -4°C° 0 mm 2 m/S 763 mmHg 85%
    03:00 -4°C° 0 mm 2 m/S 764 mmHg 84%
    04:00 -4°C° 0 mm 2 m/S 764 mmHg 84%
    05:00 -4°C° 0 mm 2 m/S 764 mmHg 84%
    06:00 -4°C° 0 mm 2 m/S 764 mmHg 83%
    07:00 -4°C° 0 mm 2 m/S 764 mmHg 83%
    08:00 -2°C° 0 mm 2 m/S 764 mmHg 77%
    09:00 -1°C° 0 mm 2 m/S 764 mmHg 71%
    10:00 +1°C° 0 mm 2 m/S 764 mmHg 65%
    11:00 +2°C° 0 mm 2 m/S 764 mmHg 60%
    12:00 +3°C° 0 mm 2 m/S 764 mmHg 55%
    13:00 +4°C° 0 mm 2 m/S 764 mmHg 51%
    14:00 +4°C° 0 mm 2 m/S 764 mmHg 51%
    15:00 +4°C° 0 mm 2 m/S 764 mmHg 52%
    16:00 +3°C° 0 mm 2 m/S 764 mmHg 53%
    17:00 +2°C° 0 mm 2 m/S 764 mmHg 58%
    18:00 +1°C° 0 mm 2 m/S 764 mmHg 64%
    19:00 -2°C° 0 mm 2 m/S 764 mmHg 70%
    20:00 -2°C° 0 mm 2 m/S 764 mmHg 72%
    21:00 -2°C° 0 mm 2 m/S 764 mmHg 74%
    22:00 -3°C° 0 mm 2 m/S 765 mmHg 76%
    23:00 -3°C° 0 mm 2 m/S 765 mmHg 76%

    übermorgen, 22 Februar, Donnerstag

    Zeit Temperatur Niederschläge Wind Luftdruck Luftfeuchtigkeit
    00:00 -3°C° 0 mm 2 m/S 765 mmHg 77%
    01:00 -3°C° 0 mm 2 m/S 765 mmHg 78%
    02:00 -3°C° 0 mm 2 m/S 765 mmHg 78%
    03:00 -3°C° 0 mm 2 m/S 764 mmHg 78%
    04:00 -2°C° 0 mm 1 m/S 764 mmHg 78%
    05:00 -2°C° 0 mm 1 m/S 764 mmHg 78%
    06:00 -2°C° 0 mm 1 m/S 764 mmHg 78%
    07:00 -2°C° 0 mm 1 m/S 764 mmHg 77%
    08:00 -1°C° 0 mm 1 m/S 764 mmHg 72%
    09:00 -1°C° 0 mm 2 m/S 765 mmHg 66%
    10:00 +1°C° 0 mm 2 m/S 765 mmHg 60%
    11:00 +2°C° 0 mm 2 m/S 765 mmHg 58%
    12:00 +3°C° 0 mm 2 m/S 764 mmHg 55%
    13:00 +2°C° 0 mm 3 m/S 764 mmHg 53%
    14:00 +2°C° 0 mm 3 m/S 764 mmHg 55%
    15:00 +2°C° 0 mm 3 m/S 764 mmHg 57%
    16:00 +1°C° 0 mm 4 m/S 763 mmHg 59%
    17:00 +1°C° 0 mm 3 m/S 764 mmHg 63%
    18:00 0°C° 0 mm 3 m/S 764 mmHg 67%
    19:00 -2°C° 0 mm 3 m/S 764 mmHg 71%
    20:00 -2°C° 0 mm 3 m/S 764 mmHg 72%
    21:00 -4°C° 0 mm 3 m/S 764 mmHg 74%
    22:00 -4°C° 0 mm 3 m/S 764 mmHg 75%
    23:00 -5°C° 0 mm 3 m/S 764 mmHg 77%

    23 Februar, Freitag

    Zeit Temperatur Niederschläge Wind Luftdruck Luftfeuchtigkeit
    00:00 -5°C° 0 mm 3 m/S 764 mmHg 78%
    01:00 -5°C° 0 mm 3 m/S 764 mmHg 80%
    02:00 -5°C° 0 mm 3 m/S 764 mmHg 80%
    03:00 -4°C° 0 mm 2 m/S 764 mmHg 81%
    04:00 -4°C° 0 mm 2 m/S 764 mmHg 82%
    05:00 -4°C° 0 mm 2 m/S 765 mmHg 81%
    06:00 -4°C° 0 mm 2 m/S 765 mmHg 81%
    07:00 -5°C° 0 mm 3 m/S 765 mmHg 81%
    08:00 -4°C° 0 mm 3 m/S 765 mmHg 75%
    09:00 -4°C° 0 mm 3 m/S 765 mmHg 69%
    10:00 -3°C° 0 mm 4 m/S 766 mmHg 62%
    11:00 -2°C° 0 mm 4 m/S 766 mmHg 57%
    12:00 -1°C° 0 mm 4 m/S 766 mmHg 53%
    13:00 0°C° 0 mm 4 m/S 765 mmHg 48%
    14:00 0°C° 0 mm 4 m/S 765 mmHg 47%
    15:00 0°C° 0 mm 4 m/S 765 mmHg 46%
    16:00 0°C° 0 mm 4 m/S 765 mmHg 45%
    17:00 -1°C° 0 mm 4 m/S 765 mmHg 49%
    18:00 -2°C° 0 mm 4 m/S 765 mmHg 54%
    19:00 -3°C° 0 mm 4 m/S 766 mmHg 59%
    20:00 -4°C° 0 mm 4 m/S 766 mmHg 61%
    21:00 -4°C° 0 mm 4 m/S 766 mmHg 62%
    22:00 -4°C° 0 mm 4 m/S 767 mmHg 64%
    23:00 -4°C° 0 mm 4 m/S 767 mmHg 65%

    24 Februar, Samstag

    Zeit Temperatur Niederschläge Wind Luftdruck Luftfeuchtigkeit
    00:00 -4°C° 0 mm 4 m/S 767 mmHg 66%
    01:00 -5°C° 0 mm 4 m/S 767 mmHg 66%
    02:00 -5°C° 0 mm 4 m/S 767 mmHg 65%
    03:00 -5°C° 0 mm 4 m/S 767 mmHg 63%
    04:00 -5°C° 0 mm 4 m/S 767 mmHg 62%
    05:00 -6°C° 0 mm 5 m/S 767 mmHg 60%
    06:00 -6°C° 0 mm 5 m/S 767 mmHg 59%
    07:00 -6°C° 0 mm 5 m/S 767 mmHg 57%
    08:00 -5°C° 0 mm 6 m/S 768 mmHg 51%
    09:00 -4°C° 0 mm 6 m/S 768 mmHg 46%
    10:00 -4°C° 0 mm 7 m/S 768 mmHg 40%
    11:00 -3°C° 0 mm 7 m/S 768 mmHg 40%
    12:00 -2°C° 0 mm 7 m/S 768 mmHg 39%
    13:00 -2°C° 0 mm 7 m/S 768 mmHg 38%
    14:00 -2°C° 0 mm 7 m/S 768 mmHg 38%
    15:00 -2°C° 0 mm 7 m/S 768 mmHg 39%
    16:00 -2°C° 0 mm 7 m/S 768 mmHg 39%
    17:00 -3°C° 0 mm 6 m/S 768 mmHg 43%
    18:00 -4°C° 0 mm 6 m/S 768 mmHg 47%
    19:00 -5°C° 0 mm 5 m/S 769 mmHg 51%
    20:00 -5°C° 0 mm 6 m/S 769 mmHg 53%
    21:00 -6°C° 0 mm 6 m/S 769 mmHg 55%
    22:00 -6°C° 0 mm 6 m/S 770 mmHg 57%
    23:00 -8°C° 0 mm 6 m/S 770 mmHg 56%

    25 Februar, Sonntag

    Zeit Temperatur Niederschläge Wind Luftdruck Luftfeuchtigkeit
    00:00 -8°C° 0 mm 6 m/S 770 mmHg 55%
    01:00 -8°C° 0 mm 6 m/S 770 mmHg 54%
    02:00 -9°C° 0 mm 6 m/S 770 mmHg 51%
    03:00 -8°C° 0 mm 5 m/S 770 mmHg 49%
    04:00 -8°C° 0 mm 5 m/S 770 mmHg 46%
    05:00 -8°C° 0 mm 5 m/S 770 mmHg 47%
    06:00 -10°C° 0 mm 5 m/S 770 mmHg 47%
    07:00 -10°C° 0 mm 5 m/S 771 mmHg 47%
    08:00 -8°C° 0 mm 5 m/S 771 mmHg 45%
    09:00 -7°C° 0 mm 5 m/S 771 mmHg 42%
    10:00 -8°C° 0 mm 6 m/S 771 mmHg 40%
    11:00 -6°C° 0 mm 6 m/S 771 mmHg 38%
    12:00 -5°C° 0 mm 6 m/S 771 mmHg 36%
    13:00 -5°C° 0 mm 5 m/S 770 mmHg 35%
    14:00 -5°C° 0 mm 5 m/S 770 mmHg 35%
    15:00 -5°C° 0 mm 5 m/S 770 mmHg 35%
    16:00 -5°C° 0 mm 5 m/S 770 mmHg 36%
    17:00 -5°C° 0 mm 5 m/S 770 mmHg 39%
    18:00 -5°C° 0 mm 4 m/S 770 mmHg 43%
    19:00 -7°C° 0 mm 4 m/S 770 mmHg 46%
    20:00 -7°C° 0 mm 4 m/S 771 mmHg 47%
    21:00 -7°C° 0 mm 4 m/S 771 mmHg 48%
    22:00 -8°C° 0 mm 4 m/S 771 mmHg 48%
    23:00 -8°C° 0 mm 4 m/S 771 mmHg 50%
    Mehr zeigen